Flag for Micronesia Weather past 2 weeks in Kolonia, Ponape, Micronesia

Now
88 °F

More clouds than sun.


Feels Like: 98 °F
Forecast: 74 / 85 °F
Wind: 10 mph from West

Location: Pohnpei

Current Time: Jul 25, 2014 at 2:40:46 PM

Latest Report: Jul 25, 2014 at 1:50 PM


Visibility: 15 mi

Pressure: 29.82 "Hg

Humidity: 67%

Dew point: 76 °F

Location of KoloniaLocation

Historic Weather in Kolonia — Graph

°F

Kolonia temperature yesterday

Maximum temperature yesterday: 85 °F (at 10:50 AM)
Minimum temperature yesterday: 75 °F (at 10:53 PM)
Average temperature yesterday: 79 °F

Past Weeks' High & Low Weather Summary

 TemperatureHumidityPressure
High89 °F (Jul 21, 2:55 PM)99% (Jul 13, 5:52 AM)29.91 "Hg (Jul 13, 5:52 AM)
Low74 °F (Jul 11, 3:52 AM)66% (Jul 19, 3:55 PM)29.75 "Hg (Jul 23, 3:55 AM)
Average80 °F88%29.83 "Hg
* Reported Jul 10 12:51 PM — Jul 25 12:57 PM, Kolonia, Weather by CustomWeather, © 2014

Note: Actual official high and low records may vary slightly from our data, if they occured in-between our weather recording intervals... More about our weather records

Advertising

Kolonia weather history for previous 24 hours

 ConditionsComfort  
Time TempWeatherWind HumidityBarometerVisibility
12:57 PM
Jul 25
87 °FMore clouds than sun.8 mph69%29.83 "Hg15 mi
11:54 AM87 °FMore clouds than sun.10 mph69%29.83 "Hg15 mi
10:53 AM85 °FCloudy.12 mph74%29.85 "Hg15 mi
9:55 AM84 °FMostly cloudy.12 mph77%29.87 "Hg15 mi
8:52 AM82 °FMostly cloudy.3 mph81%29.87 "Hg15 mi
7:52 AM80 °FMostly cloudy.5 mph83%29.86 "Hg15 mi
6:53 AM78 °FMostly cloudy.9 mph89%29.83 "Hg15 mi
5:53 AM77 °FMostly cloudy.3 mph91%29.83 "Hg15 mi
4:56 AM77 °FMostly cloudy.3 mph95%29.82 "Hg15 mi
3:52 AM75 °FMostly cloudy.2 mph96%29.83 "Hg15 mi
2:54 AM75 °FSprinkles. Mostly cloudy.2 mph95%29.83 "Hg15 mi
1:52 AM75 °FMostly cloudy.3 mph95%29.85 "Hg15 mi
12:51 AM75 °FMostly cloudy.3 mph95%29.86 "Hg15 mi
11:54 PM
Jul 24
76 °FMostly cloudy.3 mph95%29.89 "Hg15 mi
10:53 PM75 °FLight rain. Mostly cloudy.3 mph95%29.90 "Hg13 mi
9:52 PM76 °FLight rain. Mostly cloudy.5 mph89%29.89 "Hg13 mi
8:53 PM76 °FSprinkles. Mostly cloudy.5 mph89%29.88 "Hg13 mi
7:54 PM77 °FSprinkles. Mostly cloudy.3 mph93%29.86 "Hg15 mi
6:53 PM78 °FSprinkles. Mostly cloudy.7 mph89%29.84 "Hg14 mi
5:51 PM80 °FMostly cloudy.8 mph82%29.80 "Hg15 mi
4:55 PM83 °FMostly cloudy.3 mph79%29.78 "Hg15 mi
3:55 PM83 °FMostly cloudy.6 mph81%29.78 "Hg15 mi
2:50 PM82 °FMostly cloudy.3 mph87%29.78 "Hg15 mi
Weather by CustomWeather, © 2014

See weather overviewHow to use our weather pages